Regional Weather Roundup
Issued by NWS Burlington, VT

Home | Current Version | Previous Version | Text Only | Print | Product List | Glossary On
Versions: 1 2 3 4 5 6 7 8 9 10 11 12 13 14 15 16 17 18 19 20 21 22 23 24 25 26 27 28 29 30 31 32 33 34 35 36 37 38 39 40 41 42 43 44 45 46 47 48 49 50
415
ASUS41 KBTV 200210
RWRBTV
VERMONT REGIONAL WEATHER ROUNDUP
NATIONAL WEATHER SERVICE BURLINGTON VT
900 PM EST MON FEB 19 2018

NOTE: "FAIR" INDICATES FEW OR NO CLOUDS BELOW 12,000 FEET WITH NO
SIGNIFICANT WEATHER AND/OR OBSTRUCTIONS TO VISIBILITY.

* THESE REPORTS ARE NOT UNDER NWS QUALITY CONTROL AND/OR DO NOT
  REPORT WEATHER SUCH AS PRECIPITATION AND FOG.

VTZ001>019-200300-
_____VERMONT_____


CITY           SKY/WX    TMP DP  RH WIND       PRES   REMARKS
BURLINGTON     CLOUDY    41  35  79 S18G26    30.17S
MONTPELIER     CLOUDY    38  35  89 S10       30.20F WCI  31
MORRISVILLE    CLOUDY    34  33  96 CALM      30.17F
ST. JOHNSBURY*   N/A     40  34  79 MISG      30.19S
LYNDONVILLE*   CLOUDY    38  32  79 SE8       30.20S
MIDDLEBURY*    CLOUDY    40  36  84 S10G24    30.21F
RUTLAND*       LGT RAIN  37  36  96 CALM      30.21F FOG
SPRINGFIELD    LGT RAIN  37  37 100 CALM      30.25F
HIGHGATE*      CLOUDY    40  34  80 S12G18    30.16R
NEWPORT*       CLOUDY    37  32  83 S5        30.16F
BENNINGTON     LGT RAIN  40  37  89 CALM      30.24F

_____LAKE CHAMPLAIN_____


CITY           SKY/WX    TMP DP  RH WIND       PRES   REMARKS
BURTON ISLAND*   N/A     39  34  81 SW21G30     N/A  WCI  29
COLCHESTER RF*   N/A     37  34  87 S23         N/A  WCI  26
DIAMOND ISL*     N/A     39  36  87 SE22        N/A  WCI  29

$$

NYZ007-026>031-035-052-083-087-200300-
_____NORTHERN NEW YORK_____


CITY           SKY/WX    TMP DP  RH WIND       PRES   REMARKS
PLATTSBURGH    CLOUDY    39  33  79 S8        30.15F
SARANAC LAKE   CLOUDY    37  37 100 SW7       30.09F WCI  32
MASSENA        CLOUDY    36  36 100 NE5       30.13R
OGDENSBURG*    CLOUDY    40  38  93 CALM      30.11R FOG
POTSDAM*       CLOUDY    43  39  87 SW6       30.10R
WATERTOWN      CLOUDY    42  42 100 S7        30.09R
FT DRUM        CLOUDY    38  36  93 SE15      30.07F WCI  29
ALBANY         LGT RAIN  41  37  86 S14       30.25F FOG
GLENS FALLS    LGT RAIN  37  37 100 S6        30.23F FOG

$$
NHZ002-005-011-200300-
_____NEW HAMPSHIRE_____


CITY           SKY/WX    TMP DP  RH WIND       PRES   REMARKS
LEBANON        CLOUDY    40  36  86 SW7       30.22F
KEENE          LGT RAIN  40  39  97 S6        30.29F
MT WASHINGTON  FOG       28  28 100 W59G74      N/A  VSB 0   WCI   8
PLYMOUTH       CLOUDY    35  31  87 CALM      30.25F
WHITEFIELD     CLOUDY    35  33  92 CALM      30.19S

$$

_____REGIONAL QUEBEC LOCATIONS_____


CITY           SKY/WX    TMP DP  RH WIND       PRES   REMARKS
MONTREAL       LGT RAIN  37  34  87 E3        30.16R
QUEBEC CITY    FLURRIES  34  32  93 W3        30.19F
SHERBROOKE     CLOUDY    36  34  93 E6        30.15F FOG     WCI  31

_____REGIONAL ONTARIO LOCATIONS_____


CITY           SKY/WX    TMP DP  RH WIND       PRES   REMARKS
OTTAWA         DRZL/FOG  36  34  93 NE5       30.11R VSB 1   WCI  32

______KEY______
VSB  - VISIBILITY IN MILES
WCI  - WIND CHILL INDEX
HX   - HEAT INDEX
$$
NNNN




USA.gov is the U.S. government's official web portal to all federal, state and local government web resources and services.